Change the Weather History Date:

Friday, October 19, 2007

  Actual Average Record
Temperature  
Mean Temperature 66 °F 63 °F  
Max Temperature 72 °F 73 °F 86 °F (1991)
Min Temperature 57 °F 53 °F 37 °F (1949)
Degree Days  
Heating Degree Days 0    
Month to date heating degree days  
Since 1 July heating degree days  
Cooling Degree Days 0    
Month to date cooling degree days  
Year to date cooling degree days  
Growing Degree Days 16 (Base 50)    
Moisture  
Dew Point 55 °F    
Average Humidity 71    
Maximum Humidity 90    
Minimum Humidity 55    
Precipitation  
Precipitation 0.02 in 0.03 in 0.79 in (2004)
Month to date precipitation 0.29  
Year to date precipitation 10.13  
Since 1 July precipitation 0.50  
Sea Level Pressure  
Sea Level Pressure 30.06 in    
Wind  
Wind Speed 4 mph (West)    
Max Wind Speed 15 mph    
Max Gust Speed 25 mph    
Visibility 10 miles    
Events Rain    
T = Trace of Precipitation, MM = Missing Value Source: NWS Daily Summary

Daily Weather History Graph

Daily Weather History Graph

Search for Another Location

Airport or City:

Trip Planner

Search our weather history database for the weather conditions in past years. The results will help you decide how hot, cold, wet, or windy it might be!

Date:

Astronomy

Oct. 19, 2007 Rise Set
Actual Time 7:19 AM PDT 6:25 PM PDT
Civil Twilight 6:53 AM PDT 6:52 PM PDT
Nautical Twilight 6:22 AM PDT 7:22 PM PDT
Astronomical Twilight 5:52 AM PDT 7:52 PM PDT
Moon 2:52 PM PDT (10/19) No Moon Set
Length of Visible Light 11h 58m
Length of Day
11h 06m
First Quarter, 55% of the Moon is Illuminated
Oct 19
First Quarter
Oct 25
Full
Nov 1
Last Quarter
Nov 9
New
Nov 17
First Quarter

Hourly Weather History & Observations

Time (PDT) Temp. Dew Point Humidity Pressure Visibility Wind Dir Wind Speed Gust Speed Precip Events Conditions
12:56 AM 61.0 °F 53.1 °F 75% 30.13 in 10.0 mi South 4.6 mph - N/A   Overcast
1:56 AM 61.0 °F 53.1 °F 75% 30.12 in 10.0 mi South 5.8 mph - N/A   Overcast
2:56 AM 62.1 °F 53.1 °F 72% 30.12 in 10.0 mi Calm Calm - N/A   Overcast
3:40 AM 60.8 °F 53.6 °F 77% 30.09 in 10.0 mi ESE 3.5 mph - N/A   Overcast
3:56 AM 61.0 °F 53.1 °F 75% 30.10 in 10.0 mi Calm Calm - N/A   Overcast
4:19 AM 60.8 °F 53.6 °F 77% 30.08 in 10.0 mi East 4.6 mph - N/A   Overcast
4:56 AM 61.0 °F 53.1 °F 75% 30.09 in 10.0 mi Calm Calm - N/A   Overcast
5:56 AM 61.0 °F 53.1 °F 75% 30.08 in 10.0 mi Calm Calm - N/A   Overcast
6:56 AM 62.1 °F 54.0 °F 75% 30.09 in 10.0 mi Calm Calm - N/A   Overcast
7:42 AM 60.8 °F 53.6 °F 77% 30.09 in 10.0 mi ESE 3.5 mph - N/A   Overcast
7:56 AM 61.0 °F 53.1 °F 75% 30.10 in 10.0 mi SE 3.5 mph - N/A   Mostly Cloudy
8:56 AM 63.0 °F 53.1 °F 70% 30.11 in 10.0 mi Calm Calm - N/A   Overcast
9:56 AM 66.9 °F 55.9 °F 68% 30.11 in 10.0 mi East 4.6 mph - N/A   Mostly Cloudy
10:56 AM 68.0 °F 57.0 °F 68% 30.10 in 10.0 mi Calm Calm - N/A   Mostly Cloudy
11:56 AM 71.1 °F 57.0 °F 61% 30.09 in 10.0 mi NNW 3.5 mph - N/A   Overcast
12:56 PM 71.1 °F 55.9 °F 59% 30.06 in 10.0 mi Calm Calm - N/A   Mostly Cloudy
1:56 PM 72.0 °F 55.0 °F 55% 30.04 in 10.0 mi West 5.8 mph - N/A   Overcast
2:56 PM 72.0 °F 55.9 °F 57% 30.03 in 10.0 mi West 6.9 mph - N/A   Overcast
3:56 PM 71.1 °F 55.9 °F 59% 30.01 in 10.0 mi West 10.4 mph - N/A   Mostly Cloudy
4:56 PM 71.1 °F 55.0 °F 57% 30.01 in 10.0 mi West 11.5 mph - N/A   Mostly Cloudy
5:56 PM 69.1 °F 55.9 °F 63% 30.01 in 10.0 mi West 6.9 mph - N/A   Mostly Cloudy
6:56 PM 68.0 °F 55.9 °F 65% 30.00 in 10.0 mi West 6.9 mph - N/A   Mostly Cloudy
7:56 PM 68.0 °F 57.0 °F 68% 30.00 in 10.0 mi WSW 3.5 mph - N/A   Overcast
8:56 PM 66.9 °F 57.0 °F 70% 29.99 in 10.0 mi NW 3.5 mph - N/A   Overcast
9:44 PM 62.6 °F 57.2 °F 82% 30.01 in 5.0 mi NW 15.0 mph 24.2 mph 0.00 in Rain Light Rain
9:56 PM 59.0 °F 55.9 °F 90% 30.04 in 3.0 mi NW 12.7 mph 25.3 mph 0.02 in Rain Light Rain
10:14 PM 59.0 °F 55.4 °F 88% 30.03 in 10.0 mi WNW 10.4 mph - 0.00 in   Overcast
10:56 PM 59.0 °F 53.1 °F 81% 30.03 in 10.0 mi WNW 5.8 mph - 0.00 in   Scattered Clouds
11:56 PM 57.9 °F 46.9 °F 67% 30.06 in 10.0 mi WNW 5.8 mph - N/A   Partly Cloudy